User: anonymous   Login
Location: Ertinghausen
(51.6624°N, 9.7874°E)
Time: 06:20:19
(UTC+00:00)
Language:

Cosmos 1980 Rocket - Orbit

View from above orbital plane
View from above orbital plane
View from above satellite
View from above satellite

Ground track
Ground track

The orbit data is extracted from the following two-line orbital elements,

1 19650U 88102B   24204.42481671  .00000160  00000-0  10507-3 0  9998
2 19650  71.0017 323.8555 0015052 205.4886 154.5496 14.15988267842623
Epoch (UTC): 22 July 2024 10:11:44
Eccentricity: 0.0015052
inclination: 71.0017°
perigee height: 828 km
apogee height: 850 km
right ascension of ascending node: 323.8555°
argument of perigee: 205.4886°
revolutions per day: 14.15988267
mean anomaly at epoch: 154.5496°
orbit number at epoch: 84262

The dashed part of the orbit path shows where the satellite is in the earth's shadow,  

DLR